Time,TemperatureF,DewpointF,PressureIn,WindDirection,WindDirectionDegrees,WindSpeedMPH,WindSpeedGustMPH,Humidity,HourlyPrecipIn,Conditions,Clouds,dailyrainin,SolarRadiationWatts/m^2,SoftwareType,DateUTC
2013-07-19 00:01:00,69.0,33.0,-100.00,ENE,61,6.0,11.0,26,0.00,,,0.00,1.000000,,2013-07-19 07:01:00,
2013-07-19 00:33:00,69.0,33.0,-100.00,ENE,71,7.0,10.0,26,0.00,,,-99.99,1.000000,,2013-07-19 07:33:00,
2013-07-19 00:43:00,69.0,33.0,-100.00,ENE,71,7.0,10.0,26,0.00,,,-99.99,1.000000,,2013-07-19 07:43:00,
2013-07-19 00:53:00,69.0,33.0,-100.00,ENE,71,7.0,10.0,26,0.00,,,-99.99,1.000000,,2013-07-19 07:53:00,
2013-07-19 01:01:00,69.0,33.0,-100.00,ENE,71,7.0,10.0,26,0.00,,,-99.99,1.000000,,2013-07-19 08:01:00,
2013-07-19 01:02:00,67.0,28.0,-100.00,East,84,3.0,8.0,23,0.00,,,-99.99,1.000000,,2013-07-19 08:02:00,
2013-07-19 01:33:00,67.0,28.0,-100.00,East,84,3.0,8.0,23,0.00,,,-99.99,1.000000,,2013-07-19 08:33:00,
2013-07-19 01:43:00,67.0,28.0,-100.00,East,84,3.0,8.0,23,0.00,,,-99.99,1.000000,,2013-07-19 08:43:00,
2013-07-19 01:52:00,67.0,28.0,-100.00,East,84,3.0,8.0,23,0.00,,,-99.99,1.000000,,2013-07-19 08:52:00,
2013-07-19 02:52:00,66.0,24.0,-100.00,East,79,4.0,7.0,20,0.00,,,-99.99,1.000000,,2013-07-19 09:52:00,
2013-07-19 03:01:00,66.0,24.0,-100.00,East,79,4.0,7.0,20,0.00,,,-99.99,1.000000,,2013-07-19 10:01:00,
2013-07-19 11:32:00,83.0,25.0,-100.00,NNW,345,7.0,12.0,12,0.00,,,0.00,792.000000,,2013-07-19 18:32:00,
2013-07-19 11:42:00,83.0,25.0,-100.00,NNW,345,7.0,12.0,12,0.00,,,0.00,792.000000,,2013-07-19 18:42:00,
2013-07-19 11:52:00,83.0,25.0,-100.00,NNW,345,7.0,12.0,12,0.00,,,0.00,792.000000,,2013-07-19 18:52:00,
2013-07-19 12:01:00,83.0,25.0,-100.00,NNW,345,7.0,12.0,12,0.00,,,0.00,792.000000,,2013-07-19 19:01:00,
2013-07-19 12:32:00,86.0,23.0,-100.00,NNW,332,9.0,14.0,10,0.00,,,0.00,903.000000,,2013-07-19 19:32:00,
2013-07-19 12:43:00,86.0,23.0,-100.00,NNW,332,9.0,14.0,10,0.00,,,0.00,903.000000,,2013-07-19 19:43:00,
2013-07-19 12:52:00,86.0,23.0,-100.00,NNW,332,9.0,14.0,10,0.00,,,0.00,903.000000,,2013-07-19 19:52:00,
2013-07-19 13:01:00,86.0,23.0,-100.00,NNW,332,9.0,14.0,10,0.00,,,0.00,903.000000,,2013-07-19 20:01:00,
2013-07-19 13:33:00,89.0,25.0,-100.00,NNW,342,9.0,17.0,10,0.00,,,0.00,967.000000,,2013-07-19 20:33:00,
2013-07-19 13:43:00,89.0,25.0,-100.00,NNW,342,9.0,17.0,10,0.00,,,0.00,967.000000,,2013-07-19 20:43:00,
2013-07-19 13:52:00,89.0,25.0,-100.00,NNW,342,9.0,17.0,10,0.00,,,0.00,967.000000,,2013-07-19 20:52:00,
2013-07-19 14:01:00,89.0,25.0,-100.00,NNW,342,9.0,17.0,10,0.00,,,0.00,967.000000,,2013-07-19 21:01:00,
2013-07-19 14:32:00,91.0,29.0,-100.00,North,350,10.0,16.0,11,0.00,,,0.00,979.000000,,2013-07-19 21:32:00,
2013-07-19 14:43:00,91.0,29.0,-100.00,North,350,10.0,16.0,11,0.00,,,0.00,979.000000,,2013-07-19 21:43:00,
2013-07-19 14:52:00,91.0,29.0,-100.00,North,350,10.0,16.0,11,0.00,,,0.00,979.000000,,2013-07-19 21:52:00,
2013-07-19 15:01:00,91.0,29.0,-100.00,North,350,10.0,16.0,11,0.00,,,0.00,979.000000,,2013-07-19 22:01:00,
2013-07-19 15:32:00,92.0,28.0,-100.00,NNW,345,9.0,15.0,10,0.00,,,0.00,946.000000,,2013-07-19 22:32:00,
2013-07-19 15:43:00,92.0,28.0,-100.00,NNW,345,9.0,15.0,10,0.00,,,0.00,946.000000,,2013-07-19 22:43:00,
2013-07-19 15:52:00,92.0,28.0,-100.00,NNW,345,9.0,15.0,10,0.00,,,0.00,946.000000,,2013-07-19 22:52:00,
2013-07-19 16:01:00,92.0,28.0,-100.00,NNW,345,9.0,15.0,10,0.00,,,0.00,946.000000,,2013-07-19 23:01:00,
2013-07-19 16:33:00,93.0,26.0,-100.00,NNW,332,8.0,16.0,9,0.00,,,0.00,856.000000,,2013-07-19 23:33:00,
2013-07-19 16:43:00,93.0,26.0,-100.00,NNW,332,8.0,16.0,9,0.00,,,0.00,856.000000,,2013-07-19 23:43:00,
2013-07-19 16:52:00,93.0,26.0,-100.00,NNW,332,8.0,16.0,9,0.00,,,0.00,856.000000,,2013-07-19 23:52:00,
2013-07-19 17:01:00,93.0,26.0,-100.00,NNW,332,8.0,16.0,9,0.00,,,0.00,856.000000,,2013-07-20 00:01:00,
2013-07-19 17:32:00,93.0,23.0,-100.00,North,8,6.0,16.0,8,0.00,,,0.00,725.000000,,2013-07-20 00:32:00,
2013-07-19 17:43:00,93.0,23.0,-100.00,North,8,6.0,16.0,8,0.00,,,0.00,725.000000,,2013-07-20 00:43:00,
2013-07-19 17:52:00,93.0,23.0,-100.00,North,8,6.0,16.0,8,0.00,,,0.00,725.000000,,2013-07-20 00:52:00,
2013-07-19 18:01:00,93.0,23.0,-100.00,North,8,6.0,16.0,8,0.00,,,0.00,725.000000,,2013-07-20 01:01:00,
2013-07-19 18:32:00,93.0,23.0,-100.00,NNW,333,9.0,16.0,8,0.00,,,0.00,561.000000,,2013-07-20 01:32:00,
2013-07-19 18:52:00,93.0,23.0,-100.00,NNW,333,9.0,16.0,8,0.00,,,0.00,561.000000,,2013-07-20 01:52:00,
2013-07-19 19:01:00,93.0,23.0,-100.00,NNW,333,9.0,16.0,8,0.00,,,0.00,561.000000,,2013-07-20 02:01:00,
2013-07-19 19:02:00,91.0,24.0,-100.00,NNW,341,9.0,16.0,9,0.00,,,0.00,375.000000,,2013-07-20 02:02:00,
2013-07-19 19:33:00,91.0,24.0,-100.00,NNW,341,9.0,16.0,9,0.00,,,0.00,375.000000,,2013-07-20 02:33:00,
2013-07-19 19:44:00,91.0,24.0,-100.00,NNW,341,9.0,16.0,9,0.00,,,0.00,375.000000,,2013-07-20 02:44:00,
2013-07-19 19:52:00,91.0,24.0,-100.00,NNW,341,9.0,16.0,9,0.00,,,0.00,375.000000,,2013-07-20 02:52:00,
2013-07-19 20:32:00,87.0,26.0,-100.00,North,1,11.0,17.0,11,0.00,,,0.00,189.000000,,2013-07-20 03:32:00,
2013-07-19 20:44:00,87.0,26.0,-100.00,North,1,11.0,17.0,11,0.00,,,0.00,189.000000,,2013-07-20 03:44:00,
2013-07-19 20:53:00,87.0,26.0,-100.00,North,1,11.0,17.0,11,0.00,,,0.00,189.000000,,2013-07-20 03:53:00,
2013-07-19 21:01:00,87.0,26.0,-100.00,North,1,11.0,17.0,11,0.00,,,0.00,189.000000,,2013-07-20 04:01:00,
2013-07-19 21:02:00,76.0,34.0,-100.00,North,357,7.0,17.0,22,0.00,,,0.00,27.000000,,2013-07-20 04:02:00,
2013-07-19 21:33:00,76.0,34.0,-100.00,North,357,7.0,17.0,22,0.00,,,0.00,27.000000,,2013-07-20 04:33:00,
2013-07-19 21:44:00,76.0,34.0,-100.00,North,357,7.0,17.0,22,0.00,,,0.00,27.000000,,2013-07-20 04:44:00,
2013-07-19 21:52:00,76.0,34.0,-100.00,North,357,7.0,17.0,22,0.00,,,0.00,27.000000,,2013-07-20 04:52:00,
2013-07-19 22:32:00,73.0,31.0,-100.00,NE,36,7.0,10.0,21,0.00,,,0.00,1.000000,,2013-07-20 05:32:00,
2013-07-19 22:52:00,73.0,31.0,-100.00,NE,36,7.0,10.0,21,0.00,,,0.00,1.000000,,2013-07-20 05:52:00,
2013-07-19 23:01:00,73.0,31.0,-100.00,NE,36,7.0,10.0,21,0.00,,,0.00,1.000000,,2013-07-20 06:01:00,
2013-07-19 23:32:00,71.0,23.0,-100.00,NE,35,8.0,13.0,16,0.00,,,0.00,1.000000,,2013-07-20 06:32:00,
2013-07-19 23:43:00,71.0,23.0,-100.00,NE,35,8.0,13.0,16,0.00,,,0.00,1.000000,,2013-07-20 06:43:00,
2013-07-19 23:52:00,71.0,23.0,-100.00,NE,35,8.0,13.0,16,0.00,,,0.00,1.000000,,2013-07-20 06:52:00,